LYZIP EYVP-EYVI

Flight info

Callsign LYZIP
Flight time 0h 15m
Altitude 1500
Route VFR
Aircraft C152/L-VGD/C

Departure

Time 2026-04-26 14:29
Airport Paluknys Airfield (EYVP)

Arrival

Time 2026-04-26 14:44
Airport Vilnius International Airport (EYVI)
Time Latitude Longitude Altitude Speed Heading
2026-04-26 14:27 54.47768 24.98797 480 ft 0 kts
2026-04-26 14:28 54.47784 24.98798 480 ft 16 kts
2026-04-26 14:28 54.48026 24.98797 501 ft 51 kts 348°
2026-04-26 14:29 54.48428 24.98786 669 ft 56 kts 351°
2026-04-26 14:29 54.48825 24.98797 930 ft 53 kts 353°
2026-04-26 14:29 54.49182 24.98903 1135 ft 56 kts 356°
2026-04-26 14:29 54.49554 24.99053 1195 ft 56 kts 354°
2026-04-26 14:30 54.49974 24.99239 1146 ft 68 kts
2026-04-26 14:30 54.50456 24.99363 914 ft 84 kts 352°
2026-04-26 14:30 54.50918 24.99439 1102 ft 61 kts 358°
2026-04-26 14:30 54.51318 24.99664 1197 ft 52 kts
2026-04-26 14:31 54.51694 24.99829 1196 ft 55 kts 351°
2026-04-26 14:31 54.52088 24.99809 1133 ft 61 kts 344°
2026-04-26 14:31 54.52489 24.99768 1260 ft 45 kts 348°
2026-04-26 14:31 54.52742 24.99830 1470 ft 39 kts 349°
2026-04-26 14:32 54.53040 24.99920 1481 ft 47 kts 352°
2026-04-26 14:32 54.53376 25.00077 1491 ft 57 kts 356°
2026-04-26 14:32 54.53769 25.00159 1586 ft 58 kts 348°
2026-04-26 14:32 54.54236 25.00071 1481 ft 73 kts 340°
2026-04-26 14:33 54.54698 25.00147 1683 ft 83 kts 38°
2026-04-26 14:33 54.54783 25.01301 1716 ft 112 kts 70°
2026-04-26 14:33 54.54773 25.02669 1736 ft 119 kts 126°
2026-04-26 14:33 54.54311 25.02821 1809 ft 107 kts 198°
2026-04-26 14:34 54.53557 25.02694 1784 ft 116 kts 207°
2026-04-26 14:34 54.52802 25.03131 1701 ft 136 kts 119°
2026-04-26 14:34 54.52786 25.04581 1440 ft 112 kts 57°
2026-04-26 14:34 54.53081 25.05634 1446 ft 82 kts 23°
2026-04-26 14:35 54.53236 25.05583 1364 ft 86 kts 126°
2026-04-26 14:35 54.52936 25.05045 1089 ft 65 kts 255°
2026-04-26 14:35 54.52723 25.04488 1325 ft 61 kts 261°
2026-04-26 14:35 54.52520 25.03789 1459 ft 70 kts 265°
2026-04-26 14:36 54.52591 25.03381 1521 ft 67 kts 33°
2026-04-26 14:36 54.52846 25.04243 1411 ft 89 kts 49°
2026-04-26 14:36 54.53080 25.05143 1516 ft 80 kts 45°
2026-04-26 14:36 54.53331 25.05946 1546 ft 76 kts 38°
2026-04-26 14:37 54.53555 25.06707 1551 ft 78 kts 37°
2026-04-26 14:37 54.53799 25.07551 1588 ft 77 kts 38°
2026-04-26 14:37 54.54034 25.08405 1593 ft 83 kts 41°
2026-04-26 14:37 54.54287 25.09318 1586 ft 87 kts 43°
2026-04-26 14:38 54.54559 25.10275 1581 ft 90 kts 44°
2026-04-26 14:38 54.54815 25.11265 1580 ft 92 kts 49°
2026-04-26 14:38 54.55020 25.12211 1657 ft 89 kts 53°
2026-04-26 14:38 54.55258 25.13150 1711 ft 82 kts 43°
2026-04-26 14:39 54.55503 25.14055 1724 ft 84 kts 40°
2026-04-26 14:39 54.55768 25.15003 1664 ft 91 kts 43°
2026-04-26 14:39 54.56065 25.16044 1525 ft 101 kts 50°
2026-04-26 14:39 54.56340 25.17170 1459 ft 102 kts 54°
2026-04-26 14:40 54.56582 25.18281 1472 ft 96 kts 58°
2026-04-26 14:40 54.56771 25.19381 1461 ft 95 kts 59°
2026-04-26 14:40 54.56925 25.20475 1472 ft 92 kts 61°
2026-04-26 14:40 54.57079 25.21537 1516 ft 91 kts 56°
2026-04-26 14:41 54.57232 25.22610 1456 ft 95 kts 61°
2026-04-26 14:41 54.57388 25.23739 1433 ft 96 kts 65°
2026-04-26 14:41 54.57588 25.24733 1482 ft 75 kts 33°
2026-04-26 14:41 54.58015 25.25091 1429 ft 66 kts
2026-04-26 14:42 54.58422 25.25405 1457 ft 62 kts
2026-04-26 14:42 54.58813 25.25694 1466 ft 60 kts 11°
2026-04-26 14:42 54.59196 25.25968 1435 ft 59 kts 356°
2026-04-26 14:42 54.59565 25.26137 1428 ft 53 kts 352°
2026-04-26 14:43 54.59949 25.26208 1324 ft 61 kts 356°
2026-04-26 14:43 54.60368 25.26515 1178 ft 67 kts 22°
2026-04-26 14:43 54.60748 25.26892 1049 ft 59 kts 358°
2026-04-26 14:43 54.61150 25.27032 971 ft 63 kts
2026-04-26 14:44 54.61570 25.27277 873 ft 63 kts
2026-04-26 14:44 54.61949 25.27584 753 ft 56 kts
2026-04-26 14:44 54.62298 25.27792 649 ft 53 kts
2026-04-26 14:44 54.62611 25.28035 610 ft 39 kts 356°
2026-04-26 14:45 54.62804 25.28149 592 ft 37 kts 19°
2026-04-26 14:45 54.63022 25.28266 613 ft 57 kts 24°
2026-04-26 14:45 54.63579 25.28663 825 ft 67 kts
2026-04-26 14:45 54.64007 25.28723 1062 ft 56 kts 328°
2026-04-26 14:46 54.64099 25.28099 1263 ft 57 kts 281°
2026-04-26 14:46 54.64020 25.27585 1484 ft 59 kts 271°
2026-04-26 14:46 54.63918 25.26986 1540 ft 39 kts 281°
2026-04-26 14:46 54.63800 25.26976 911 ft 126 kts 93°
2026-04-26 14:47 54.63287 25.27083 1260 ft 86 kts 209°
2026-04-26 14:47 54.62640 25.26797 1296 ft 102 kts 212°
2026-04-26 14:47 54.62002 25.26485 1216 ft 96 kts 208°
2026-04-26 14:47 54.61418 25.26637 1201 ft 95 kts 111°
2026-04-26 14:48 54.61543 25.27385 966 ft 59 kts 355°
2026-04-26 14:48 54.61936 25.27541 795 ft 56 kts 15°
2026-04-26 14:48 54.62286 25.27806 653 ft 52 kts 18°
2026-04-26 14:48 54.62551 25.28016 603 ft 32 kts 357°
2026-04-26 14:49 54.62701 25.28084 593 ft 22 kts 18°
2026-04-26 14:49 54.62856 25.28159 593 ft 19 kts 19°
2026-04-26 14:49 54.62940 25.28211 595 ft 5 kts
2026-04-26 14:49 54.62960 25.28181 596 ft 6 kts 292°
2026-04-26 14:50 54.62983 25.28082 597 ft 8 kts 291°
2026-04-26 14:50 54.62998 25.28020 599 ft 6 kts 304°
2026-04-26 14:50 54.63063 25.28031 601 ft 15 kts 32°
2026-04-26 14:50 54.63163 25.28096 611 ft 19 kts 24°
2026-04-26 14:51 54.63289 25.28177 606 ft 18 kts 23°
2026-04-26 14:51 54.63389 25.28253 604 ft 12 kts 22°
2026-04-26 14:51 54.63398 25.28257 604 ft 2 kts
2026-04-26 14:51 54.63446 25.28292 604 ft 10 kts 20°
2026-04-26 14:52 54.63507 25.28336 606 ft 8 kts 20°
2026-04-26 14:52 54.63571 25.28375 614 ft 10 kts
2026-04-26 14:52 54.63645 25.28349 612 ft 15 kts 349°
2026-04-26 14:52 54.63732 25.28316 617 ft 12 kts 346°
2026-04-26 14:53 54.63836 25.28273 625 ft 20 kts 345°
2026-04-26 14:53 54.63966 25.28225 635 ft 16 kts 353°
2026-04-26 14:53 54.64076 25.28181 631 ft 17 kts 348°
2026-04-26 14:53 54.64138 25.28158 631 ft 0 kts 352°
2026-04-26 14:54 54.64162 25.28173 644 ft 12 kts 46°
2026-04-26 14:54 54.64174 25.28320 633 ft 12 kts 132°
2026-04-26 14:55 54.64118 25.28355 633 ft 10 kts 111°
2026-04-26 14:55 54.64118 25.28467 635 ft 9 kts 91°
2026-04-26 14:55 54.64153 25.28496 636 ft 0 kts 356°